Flag for Norway Weather past 2 weeks in Mysen, Norway

Now
65 °F

Passing clouds.


Feels Like: 65 °F
Forecast: 61 / 76 °F
Wind: 3 mph from East

Location: Rygge

Current Time: Aug 2, 2014 at 10:40:09 AM

Latest Report: Aug 2, 2014 at 10:00 AM


Visibility: 13 mi

Pressure: 29.96 "Hg

Humidity: 88%

Dew point: 62 °F

Location of MysenLocation

Historic Weather in Mysen — Graph

°F

Mysen temperature yesterday

Maximum temperature yesterday: 72 °F (at 2:00 PM)
Minimum temperature yesterday: 62 °F (at 3:00 AM)
Average temperature yesterday: 66 °F

Past Weeks' High & Low Weather Summary

 TemperatureHumidityPressure
High90 °F (Jul 23, 5:00 PM)97% (Jul 19, 4:00 AM)30.31 "Hg (Jul 19, 4:00 AM)
Low55 °F (Jul 19, 5:00 AM)26% (Jul 23, 6:00 PM)29.62 "Hg (Jul 30, 8:00 PM)
Average71 °F62%30.00 "Hg
* Reported Jul 18 9:00 AM — Aug 2 9:00 AM, Mysen, Weather by CustomWeather, © 2014

Note: Actual official high and low records may vary slightly from our data, if they occured in-between our weather recording intervals... More about our weather records

Advertising

Mysen weather history for previous 24 hours

 ConditionsComfort  
Time TempWeatherWind HumidityBarometerVisibility
9:00 AM
Aug 2
62 °FScattered clouds.3 mph93%29.97 "Hg18 mi
8:00 AM61 °FPartly sunny.2 mph95%29.96 "Hg17 mi
7:00 AM60 °FRain. Overcast.3 mph93%29.94 "Hg1 mi
6:00 AM62 °FRain. Partly sunny.5 mph91%29.97 "Hg4 mi
5:00 AM60 °FPassing clouds.1 mph92%29.93 "Hg10 mi
4:00 AM63 °FOvercast.2 mph88%29.94 "Hg11 mi
3:00 AM61 °FPassing clouds.3 mph92%29.94 "Hg12 mi
2:00 AM62 °FPassing clouds.3 mph89%29.93 "Hg14 mi
1:00 AM61 °FPassing clouds.3 mph87%29.94 "Hg17 mi
12:00 AM61 °FClear.3 mph86%29.93 "Hg16 mi
11:00 PM
Aug 1
64 °FClear.2 mph80%29.92 "Hg19 mi
10:00 PM65 °FPassing clouds.3 mph78%29.90 "Hg19 mi
9:00 PM66 °FPassing clouds.6 mph74%29.89 "Hg19 mi
8:00 PM68 °FPassing clouds.7 mph69%29.88 "Hg19 mi
7:00 PM68 °FPassing clouds.8 mph70%29.88 "Hg17 mi
6:00 PM70 °FSunny.10 mph63%29.87 "Hg17 mi
5:00 PM71 °FScattered clouds.9 mph61%29.86 "Hg22 mi
4:00 PM71 °FSunny.10 mph58%29.85 "Hg17 mi
3:00 PM71 °FPassing clouds.10 mph58%29.84 "Hg19 mi
2:00 PM72 °FSunny.10 mph52%29.83 "Hg18 mi
1:00 PM70 °FSunny.10 mph56%29.82 "Hg16 mi
12:00 PM70 °FSunny.8 mph60%29.81 "Hg19 mi
11:00 AM67 °FSunny.9 mph62%29.80 "Hg28 mi
10:00 AM68 °FSunny.7 mph57%29.78 "Hg19 mi
Weather by CustomWeather, © 2014

See weather overviewHow to use our weather pages